C/2011 F1 ( LINEAR )

Japanese version
Home page
Updated on May 7, 2015

---------------------------------------------------------------------

* Profile

Discovery Date March 17, 2011
Magnitude 18.3 mag
Discoverer Lincoln Laboratory Near-Earth Asteroid Research project

* Pictures

* Orbital Elements

Epoch 2013 Jan. 28.0 TT = JDT 2456320.5
T 2013 Jan. 8.00950 TT                                  MPC
q   1.8191569            (2000.0)            P               Q
z  +0.0000240      Peri.  192.54803     +0.03599963     +0.55369967
                   Node    85.11501     -0.82949665     +0.48083833
e   0.9999563      Incl.   56.61280     -0.55735028     -0.67986115
From 4569 observations 2011 Mar. 17-2014 Aug. 7, mean residual 0".6.
     Nongravitational parameters A1 = +5.98, A2 = -2.7194.

* Finding Charts

* Magnitudes Graph

        m1 = 4.0 + 5 log d + 11.0 log r  [ ,0]  (             - 2013 Jan.  8)
        m1 = 8.5 + 5 log d + 11.0 log r  [0, ]  (2013 Jan.  8 -             )

        * Gray curve is:  m1 = 4.0 + 5 log d + 11.0 log r

---------------------------------------------------------------------

The orbital elements are published on M.P.E.C. 2014-P41.
The charts are made with StellaNavigator Ver.8 (AstroArts).
The magnitudes graphs are made with Comet for Windows.

---------------------------------------------------------------------

Copyright(C) Seiichi Yoshida (comet@aerith.net). All rights reserved.